Temp
13 13 13 13 13 13 14 12 12 12 11 10 9 10 10 10 10 8 9 8 7 7 7 7 7 7 7 6 6 6 7 7 7 7 7 7 7 7 7 7 7 7 7 7 7 7 7 7 7
13 13 13 13 13 15 13 12 11 10 9 9 9 9 9 10 9 9 8 8 7 7 7 6 6 6 6 6 6 6 6 6 6 6 6 6 6 6 7 7 7 6 7 7 6 7 7 7 7
13 13 12 12 14 13 13 11 10 9 9 9 9 10 9 9 9 8 7 7 7 7 6 6 6 6 6 6 6 6 6 6 6 6 6 6 6 6 6 6 6 6 6 6 6 6 6 7 7
13 12 12 13 12 11 11 10 9 10 9 8 8 8 8 8 8 7 6 6 6 6 6 5 5 5 5 5 5 5 5 5 6 6 5 6 6 5 5 5 5 6 6 6 6 6 6 6 6
12 12 13 12 11 10 10 9 9 9 9 7 8 8 8 8 8 6 6 5 5 6 5 5 5 5 5 5 5 5 5 5 5 5 5 5 5 5 5 5 5 5 5 5 5 6 6 6 6
11 12 14 13 11 10 9 9 9 8 7 8 7 5 7 8 7 6 6 4 5 5 5 4 5 5 5 5 5 4 4 5 4 5 4 5 5 5 5 5 5 5 5 5 4 4 5 5 6
10 12 12 12 10 9 8 8 10 8 9 9 8 6 7 7 6 5 5 5 5 4 4 5 3 4 4 4 4 4 4 4 4 4 4 4 4 4 4 4 4 4 5 4 4 4 4 5 5
11 11 11 10 11 8 10 10 9 8 9 8 7 4 4 6 5 4 3 3 3 5 4 4 4 3 4 3 3 3 3 3 3 3 3 3 3 3 4 4 4 4 4 5 5 4 4 4 5
11 11 11 10 9 8 8 7 7 7 7 7 6 5 3 2 1 0 1 1 1 2 2 2 2 2 2 1 2 2 2 2 2 3 3 3 3 3 3 3 3 3 4 4 4 4 4 4 4
10 10 9 8 7 8 8 8 5 5 6 5 5 3 3 3 2 0 -0 -0 -0 0 0 0 1 0 0 0 1 1 1 1 1 1 2 2 2 2 2 2 3 3 3 3 4 4 4 4 5
11 9 9 9 8 5 8 8 7 3 5 5 4 3 2 1 0 0 -0 -1 -1 -0 -0 0 -0 -1 -1 -1 -1 -1 -0 -0 0 -0 -0 0 0 1 1 1 1 2 2 3 3 3 3 3 4
10 9 9 9 8 7 7 7 6 6 5 4 3 1 0 -1 -1 -1 -1 -1 -1 -1 -2 -2 -2 -2 -2 -2 -3 -3 -3 -3 -2 -2 -1 -1 -1 -1 -1 -1 -1 -0 0 1 1 2 3 3 3
10 10 9 8 8 7 7 6 5 5 4 3 1 -1 -1 -2 -2 -2 -2 -2 -3 -3 -3 -4 -4 -4 -4 -3 -3 -3 -3 -3 -3 -3 -3 -3 -2 -2 -2 -1 -1 -1 -1 -1 0 1 1 2 2
9 9 8 8 7 7 6 5 4 3 1 -1 -3 -4 -4 -4 -4 -4 -4 -4 -5 -5 -4 -4 -4 -4 -4 -4 -4 -4 -4 -4 -4 -4 -4 -4 -5 -4 -3 -3 -3 -2 -2 -1 -1 -0 0 0 1
9 8 8 6 5 5 5 2 2 1 -1 -4 -5 -6 -6 -5 -5 -5 -5 -5 -4 -4 -4 -5 -6 -6 -6 -6 -6 -5 -5 -6 -6 -7 -7 -7 -8 -7 -7 -5 -4 -4 -3 -2 -2 -1 -1 -0 0
7 8 9 7 6 3 4 2 1 0 -3 -5 -6 -6 -6 -6 -7 -5 -5 -5 -5 -5 -5 -5 -5 -5 -5 -6 -6 -6 -6 -6 -6 -7 -7 -9 -8 -8 -9 -8 -6 -6 -5 -4 -3 -3 -2 -1 -0
9 9 9 7 5 5 3 1 1 -2 -5 -6 -6 -6 -7 -7 -7 -7 -7 -8 -6 -6 -6 -6 -6 -6 -6 -6 -6 -7 -7 -7 -7 -7 -7 -8 -9 -8 -8 -9 -9 -9 -9 -8 -6 -5 -4 -3 -2
6 7 7 6 4 3 -1 -2 -2 -5 -6 -6 -6 -7 -7 -7 -7 -8 -8 -7 -6 -7 -7 -7 -7 -7 -7 -7 -7 -7 -7 -7 -8 -7 -7 -8 -8 -9 -9 -9 -9 -9 -9 -9 -8 -8 -7 -6 -5
6 5 6 5 3 2 -2 -4 -6 -6 -6 -6 -7 -7 -7 -7 -7 -8 -8 -8 -7 -8 -8 -8 -8 -8 -8 -8 -9 -8 -8 -8 -8 -8 -8 -8 -8 -9 -10 -10 -10 -9 -10 -9 -10 -9 -9 -9 -7
6 5 5 3 2 1 -1 -4 -6 -6 -6 -7 -6 -7 -7 -8 -6 -7 -6 -7 -8 -8 -9 -8 -8 -8 -9 -10 -10 -10 -10 -9 -8 -9 -9 -8 -8 -8 -9 -9 -10 -10 -10 -10 -10 -10 -9 -8 -8
5 4 4 2 2 0 -1 -3 -5 -6 -6 -6 -6 -7 -7 -8 -8 -9 -9 -9 -9 -10 -10 -9 -9 -8 -9 -9 -9 -9 -9 -9 -8 -9 -9 -10 -9 -9 -8 -9 -9 -9 -10 -10 -9 -10 -10 -9 -8
6 5 5 3 1 4 -0 3 -4 -5 -6 -6 -6 -7 -8 -8 -9 -9 -9 -10 -10 -9 -9 -9 -8 -9 -9 -9 -9 -9 -9 -9 -9 -9 -9 -9 -10 -9 -9 -9 -9 -9 -9 -9 -9 -10 -10 -10 -9
5 6 4 3 1 2 1 2 -3 -5 -6 -6 -7 -8 -8 -9 -9 -10 -10 -10 -9 -8 -8 -8 -8 -8 -9 -9 -9 -9 -10 -10 -10 -9 -9 -9 -9 -10 -9 -9 -9 -9 -9 -9 -9 -10 -10 -10 -10
3 5 4 4 2 5 0 0 -3 -6 -6 -7 -7 -8 -8 -9 -9 -9 -8 -8 -8 -7 -7 -8 -8 -8 -8 -8 -8 -9 -9 -10 -10 -10 -10 -10 -10 -10 -10 -10 -10 -9 -9 -9 -9 -9 -10 -10 -11
2 2 6 6 6 6 1 0 -4 -6 -6 -8 -8 -9 -9 -9 -8 -8 -9 -8 -8 -7 -8 -8 -8 -8 -8 -8 -8 -8 -9 -9 -9 -9 -9 -10 -10 -10 -10 -10 -10 -11 -11 -10 -9 -9 -10 -10 -10
-1 -0 1 1 3 2 1 1 -4 -6 -7 -8 -8 -9 -9 -9 -9 -9 -8 -8 -8 -7 -8 -8 -8 -8 -8 -8 -8 -8 -8 -8 -9 -9 -9 -9 -9 -10 -10 -10 -10 -10 -11 -11 -11 -11 -11 -10 -10
-1 -2 -2 -2 0 1 3 -1 -5 -5 -7 -8 -9 -9 -9 -9 -9 -8 -8 -8 -7 -8 -8 -8 -8 -8 -8 -8 -8 -8 -8 -8 -8 -8 -9 -9 -9 -9 -9 -10 -10 -10 -11 -11 -11 -11 -11 -12 -12
-1 -2 -1 -1 -2 -1 2 -1 -5 -6 -8 -8 -9 -10 -9 -8 -8 -8 -8 -8 -8 -8 -8 -9 -9 -8 -8 -8 -8 -8 -8 -8 -8 -8 -8 -9 -9 -9 -9 -10 -10 -11 -11 -11 -11 -11 -11 -11 -11
-2 -4 -3 -4 -4 -3 -2 -2 -6 -7 -8 -9 -8 -10 -9 -9 -9 -8 -8 -8 -8 -8 -8 -9 -8 -8 -7 -7 -7 -7 -7 -7 -7 -7 -8 -8 -8 -9 -9 -9 -10 -10 -11 -11 -11 -11 -11 -11 -11
-2 -4 -5 -5 -4 -5 -6 -5 -6 -7 -9 -9 -8 -8 -8 -9 -8 -8 -7 -8 -7 -7 -7 -8 -8 -7 -7 -6 -6 -6 -5 -5 -6 -6 -7 -7 -7 -8 -9 -9 -10 -10 -10 -11 -11 -11 -11 -11 -11
Height
3172 3173 3173 3174 3177 3172 3172 3175 3175 3175 3174 3173 3171 3168 3168 3167 3167 3170 3165 3163 3163 3161 3159 3158 3156 3155 3153 3152 3150 3149 3148 3147 3147 3146 3146 3145 3144 3143 3142 3141 3141 3140 3139 3139 3138 3138 3138 3137 3137
3173 3173 3174 3174 3175 3169 3172 3175 3175 3174 3172 3172 3170 3172 3168 3166 3165 3164 3163 3162 3161 3159 3158 3156 3154 3152 3151 3150 3148 3148 3146 3145 3144 3143 3142 3141 3140 3139 3138 3138 3138 3138 3137 3137 3136 3136 3136 3135 3135
3173 3173 3175 3176 3173 3172 3173 3175 3174 3173 3172 3172 3171 3168 3166 3164 3163 3161 3159 3158 3157 3155 3153 3151 3150 3148 3147 3146 3145 3144 3143 3142 3141 3141 3140 3138 3137 3135 3135 3134 3134 3134 3134 3134 3133 3133 3133 3133 3133
3173 3175 3176 3175 3175 3175 3176 3175 3174 3175 3174 3170 3170 3165 3165 3163 3162 3160 3159 3157 3155 3152 3151 3149 3148 3146 3145 3143 3142 3141 3140 3139 3138 3137 3136 3135 3134 3133 3132 3129 3130 3130 3129 3129 3129 3129 3129 3131 3131
3173 3174 3176 3176 3177 3177 3175 3175 3175 3175 3173 3168 3168 3161 3162 3160 3159 3157 3155 3153 3151 3150 3147 3145 3143 3142 3141 3140 3138 3136 3135 3134 3133 3131 3131 3130 3129 3129 3128 3128 3126 3125 3124 3124 3125 3125 3125 3126 3127
3174 3175 3175 3175 3177 3178 3177 3176 3175 3174 3169 3169 3168 3161 3161 3158 3157 3154 3152 3150 3147 3144 3142 3140 3139 3137 3136 3134 3133 3131 3130 3128 3127 3127 3125 3124 3123 3122 3122 3122 3120 3121 3121 3120 3119 3119 3121 3122 3123
3174 3176 3176 3178 3180 3178 3176 3174 3173 3169 3169 3168 3165 3161 3157 3154 3152 3149 3147 3143 3141 3138 3136 3133 3132 3131 3129 3127 3125 3124 3123 3122 3120 3120 3120 3119 3118 3116 3115 3115 3114 3114 3115 3115 3115 3115 3113 3117 3118
3174 3178 3179 3180 3181 3177 3174 3171 3168 3166 3162 3160 3160 3155 3149 3150 3148 3145 3142 3138 3136 3133 3132 3130 3128 3126 3123 3121 3119 3117 3116 3115 3114 3114 3112 3111 3110 3110 3109 3109 3109 3108 3108 3108 3109 3110 3111 3110 3111
3176 3180 3179 3176 3177 3175 3170 3172 3165 3162 3159 3158 3156 3153 3150 3146 3143 3139 3135 3132 3129 3126 3125 3122 3121 3118 3115 3113 3110 3110 3109 3107 3106 3105 3105 3104 3102 3101 3101 3101 3101 3101 3101 3101 3101 3102 3103 3104 3105
3178 3178 3176 3174 3174 3170 3167 3168 3166 3162 3157 3156 3154 3150 3146 3142 3140 3137 3132 3128 3126 3122 3119 3116 3113 3111 3109 3107 3104 3102 3101 3099 3099 3098 3097 3097 3095 3093 3092 3091 3092 3091 3092 3092 3093 3094 3095 3097 3098
3175 3175 3172 3171 3172 3172 3166 3166 3165 3162 3156 3153 3150 3147 3142 3139 3136 3134 3131 3126 3123 3119 3114 3113 3110 3106 3103 3099 3097 3094 3091 3090 3089 3089 3088 3087 3086 3084 3083 3083 3082 3082 3082 3082 3083 3084 3084 3087 3089
3174 3172 3172 3173 3172 3170 3167 3165 3165 3160 3155 3151 3148 3144 3140 3138 3135 3132 3129 3125 3119 3115 3110 3106 3101 3098 3096 3091 3089 3086 3084 3081 3078 3076 3075 3075 3075 3074 3074 3072 3071 3071 3072 3073 3073 3073 3074 3076 3077
3174 3174 3174 3172 3171 3169 3167 3164 3160 3156 3153 3149 3145 3142 3138 3136 3133 3130 3124 3121 3115 3111 3106 3101 3095 3090 3085 3081 3078 3074 3072 3068 3067 3064 3061 3060 3059 3061 3061 3061 3060 3060 3060 3061 3061 3062 3063 3065 3066
3176 3176 3174 3172 3170 3167 3164 3160 3158 3153 3150 3147 3144 3140 3137 3133 3129 3125 3119 3116 3111 3106 3099 3093 3087 3081 3074 3069 3065 3060 3058 3054 3052 3051 3049 3049 3046 3044 3046 3047 3048 3048 3049 3049 3049 3051 3053 3054 3055
3177 3176 3173 3171 3168 3165 3163 3154 3155 3151 3148 3145 3143 3140 3135 3131 3126 3120 3115 3110 3104 3097 3090 3083 3077 3072 3067 3061 3056 3051 3045 3039 3036 3036 3037 3036 3036 3034 3032 3032 3034 3034 3035 3036 3036 3039 3040 3041 3044
3178 3179 3179 3172 3170 3165 3164 3159 3151 3149 3147 3144 3142 3139 3134 3129 3124 3119 3112 3105 3097 3090 3084 3078 3071 3065 3059 3054 3048 3042 3038 3034 3030 3027 3024 3025 3026 3025 3022 3020 3020 3021 3021 3022 3022 3025 3027 3028 3031
3181 3180 3178 3174 3167 3166 3162 3155 3150 3148 3145 3144 3142 3138 3132 3127 3122 3115 3107 3099 3092 3085 3079 3071 3065 3058 3052 3046 3041 3036 3030 3025 3023 3021 3018 3016 3016 3015 3013 3013 3011 3011 3010 3009 3010 3011 3013 3015 3016
3180 3177 3175 3173 3166 3160 3155 3151 3149 3146 3146 3144 3141 3137 3131 3125 3118 3110 3103 3096 3088 3080 3072 3064 3057 3051 3043 3037 3032 3026 3022 3017 3013 3010 3009 3008 3006 3005 3005 3003 3004 3003 3001 3000 3000 3000 3002 3003 3002
3178 3176 3173 3169 3160 3158 3153 3150 3148 3147 3145 3143 3140 3134 3128 3121 3113 3107 3099 3091 3082 3074 3064 3056 3046 3039 3031 3023 3017 3012 3007 3004 3001 2998 2997 2996 2996 2994 2994 2992 2992 2992 2992 2993 2992 2992 2993 2992 2993
3176 3173 3169 3163 3161 3158 3152 3150 3148 3147 3146 3142 3138 3133 3125 3116 3108 3100 3092 3084 3075 3066 3056 3047 3038 3030 3022 3013 3006 3000 2994 2989 2985 2983 2981 2982 2982 2982 2982 2981 2981 2981 2982 2982 2983 2984 2984 2983 2985
3172 3168 3163 3159 3152 3151 3153 3150 3149 3147 3148 3143 3138 3131 3122 3113 3104 3095 3086 3077 3066 3056 3046 3036 3027 3020 3012 3005 2996 2990 2983 2978 2974 2971 2968 2967 2967 2968 2968 2969 2969 2970 2970 2970 2972 2974 2974 2974 2976
3172 3167 3158 3152 3152 3153 3151 3151 3149 3149 3145 3141 3133 3126 3119 3109 3100 3091 3081 3070 3059 3048 3038 3029 3020 3012 3004 2996 2987 2980 2972 2965 2962 2958 2955 2954 2953 2953 2954 2955 2957 2958 2959 2959 2961 2964 2965 2965 2965
3169 3162 3153 3152 3152 3154 3153 3151 3150 3147 3142 3136 3129 3122 3114 3106 3096 3086 3074 3063 3053 3043 3032 3023 3015 3006 2998 2988 2979 2969 2960 2954 2949 2946 2943 2941 2940 2939 2939 2940 2942 2944 2947 2948 2950 2953 2955 2956 2957
3166 3157 3152 3150 3151 3148 3152 3152 3148 3148 3145 3136 3126 3120 3110 3101 3092 3082 3071 3059 3046 3036 3026 3017 3007 2999 2988 2978 2967 2959 2950 2943 2937 2934 2931 2928 2926 2926 2926 2927 2927 2929 2932 2935 2938 2941 2943 2945 2947
3167 3158 3154 3152 3150 3147 3148 3145 3150 3148 3143 3137 3125 3116 3107 3098 3087 3074 3062 3050 3038 3028 3018 3009 2998 2988 2977 2966 2956 2947 2939 2932 2927 2923 2919 2917 2915 2914 2913 2914 2915 2916 2918 2920 2925 2928 2930 2933 2936
3172 3171 3171 3169 3156 3152 3147 3147 3147 3145 3143 3136 3127 3116 3105 3095 3084 3071 3058 3045 3034 3023 3012 3001 2989 2976 2966 2957 2948 2939 2930 2923 2917 2913 2909 2906 2903 2903 2903 2902 2902 2904 2906 2908 2911 2914 2917 2921 2924
3176 3174 3174 3170 3163 3157 3148 3147 3143 3141 3138 3131 3123 3113 3102 3091 3080 3066 3054 3043 3029 3017 3005 2992 2979 2968 2959 2950 2941 2932 2924 2916 2909 2903 2898 2894 2892 2891 2890 2891 2891 2892 2895 2898 2900 2902 2906 2910 2913
3178 3177 3176 3174 3169 3159 3146 3143 3146 3137 3130 3124 3116 3108 3098 3088 3075 3063 3050 3038 3025 3013 2998 2985 2974 2962 2953 2944 2936 2926 2917 2910 2902 2895 2889 2883 2880 2880 2880 2881 2882 2883 2885 2888 2890 2892 2895 2898 2902
3180 3178 3177 3175 3175 3173 3156 3148 3150 3144 3135 3124 3114 3106 3096 3084 3072 3059 3047 3035 3022 3008 2993 2981 2970 2959 2950 2942 2934 2924 2915 2906 2898 2890 2882 2876 2872 2871 2872 2873 2875 2876 2878 2880 2882 2885 2887 2890 2893
3181 3178 3178 3176 3175 3171 3170 3158 3148 3141 3135 3125 3114 3104 3094 3083 3072 3059 3046 3034 3019 3005 2993 2981 2970 2960 2951 2943 2934 2925 2916 2905 2895 2887 2879 2872 2867 2865 2865 2867 2869 2871 2873 2875 2876 2878 2881 2883 2886
Wind_Speed
4 4 4 2 1 3 4 4 3 3 4 8 9 9 8 6 7 6 10 9 9 11 11 11 11 12 12 12 14 14 14 15 15 14 14 15 15 17 17 16 15 13 12 11 10 10 9 9 9
2 4 4 2 5 7 8 4 2 2 2 5 9 3 8 12 11 10 9 9 12 14 15 13 14 14 14 13 13 13 14 16 16 17 17 16 18 18 18 18 18 17 16 15 14 13 12 11 11
2 3 3 2 5 6 5 2 1 1 4 5 9 9 12 12 10 12 12 14 14 15 16 16 15 14 14 15 17 19 19 20 19 20 20 18 18 19 19 20 19 20 20 19 18 17 16 15 14
3 3 1 4 2 4 3 1 1 3 5 8 8 14 11 11 15 14 12 15 17 21 19 18 20 19 19 20 21 22 22 22 21 22 23 24 23 21 18 18 20 21 22 22 22 21 20 19 18
3 3 3 2 4 5 5 4 3 5 5 7 5 17 17 16 15 14 16 17 21 17 24 23 23 25 24 25 25 26 26 27 26 26 27 25 25 23 24 23 23 24 23 23 25 24 22 21 20
3 3 5 6 5 5 6 7 3 3 5 10 5 18 19 19 17 18 19 21 24 27 26 27 27 30 30 30 31 30 30 31 31 30 29 29 28 28 27 26 25 25 25 28 28 21 20 22 23
3 2 2 5 5 7 8 3 7 11 14 18 18 16 24 22 21 22 23 25 26 30 28 28 32 32 34 36 35 34 32 34 34 33 32 32 30 29 29 30 30 29 28 29 28 25 26 26 25
5 3 5 4 1 3 7 12 14 14 19 17 14 12 20 19 22 25 25 29 29 29 30 31 33 33 35 35 35 38 41 39 38 37 35 35 36 38 37 37 37 35 34 33 33 29 28 27 31
4 4 4 3 2 3 7 7 14 15 15 15 15 17 17 16 17 20 24 27 30 34 36 38 38 37 38 38 40 38 39 39 39 38 37 39 40 39 38 39 41 41 39 36 35 34 32 33 32
3 4 4 5 1 10 10 10 3 14 16 13 13 15 17 22 22 23 25 28 30 33 36 36 38 39 40 40 42 42 41 40 40 40 40 39 40 41 39 40 39 41 42 42 40 39 36 34 37
4 4 8 8 4 2 13 12 14 12 20 20 21 21 20 21 24 25 27 31 34 37 42 41 43 43 45 46 46 47 48 48 46 44 44 43 43 43 45 45 43 42 43 44 43 43 42 41 39
3 7 5 4 7 11 15 18 17 20 23 21 20 21 22 23 25 30 32 35 39 41 44 47 49 50 50 51 50 50 51 51 52 54 54 52 47 45 44 45 44 44 43 42 43 43 43 43 42
3 2 4 7 12 15 16 19 21 20 20 22 21 23 25 28 31 33 38 39 41 44 47 50 52 54 55 56 56 57 57 56 54 54 55 54 53 51 50 48 47 46 44 43 44 44 42 41 42
3 6 9 13 16 16 21 24 22 22 18 19 20 21 25 29 33 35 39 40 43 45 48 50 50 48 47 46 44 43 42 42 42 44 46 45 45 47 47 47 45 46 45 47 46 45 45 44 43
8 10 15 14 15 20 22 23 17 18 15 14 14 18 23 27 32 36 40 46 50 50 46 42 41 41 41 42 43 44 44 41 38 34 37 38 28 32 32 39 42 46 47 47 47 46 46 48 47
7 5 8 18 19 21 24 15 22 18 14 13 17 21 25 26 28 38 46 49 47 44 42 43 45 47 47 46 45 44 42 40 37 34 33 30 28 30 32 36 40 40 43 45 47 47 46 48 51
2 13 15 16 23 21 19 15 22 18 12 14 19 22 26 30 33 41 38 38 43 46 47 48 47 46 46 45 44 44 44 43 40 35 33 29 29 32 28 31 31 29 32 37 40 43 43 45 47
14 16 16 13 21 24 12 9 11 10 12 16 20 25 31 35 37 33 35 40 46 45 44 45 47 48 49 49 48 48 48 47 46 43 40 36 31 36 40 42 35 33 33 36 37 38 38 38 41
13 13 14 20 21 22 8 1 2 8 13 19 23 30 36 38 35 36 37 40 43 45 47 48 51 51 52 54 52 52 51 50 48 48 45 40 36 35 39 42 40 40 36 33 32 33 32 34 35
13 11 19 15 17 20 8 2 2 7 12 21 28 35 37 37 43 46 47 47 47 49 48 48 46 44 44 43 44 45 48 46 46 47 49 45 42 38 38 42 42 38 37 35 34 34 36 37 34
10 20 28 27 22 8 3 6 1 5 13 23 31 36 35 38 42 43 44 46 50 46 47 46 45 42 42 41 41 42 43 44 43 43 42 43 42 43 43 42 43 45 44 43 41 38 34 37 37
9 25 30 23 10 8 3 5 2 5 17 29 41 36 36 40 41 44 46 48 48 51 48 44 42 42 41 41 42 43 45 46 43 43 42 41 39 40 45 45 45 43 43 43 40 38 35 34 38
25 33 25 21 6 8 4 11 3 8 24 37 39 40 41 41 44 46 47 50 50 48 45 38 39 41 43 46 45 47 47 45 42 41 42 41 41 40 37 44 47 46 45 45 43 37 36 34 36
30 32 12 10 2 4 9 11 4 12 27 38 41 42 43 44 45 48 49 49 48 45 41 41 43 45 48 55 47 47 46 45 44 43 41 40 40 39 38 38 40 47 48 45 44 43 43 41 40
32 32 8 6 7 6 25 11 3 14 27 32 39 42 45 47 51 53 56 53 51 48 44 45 47 50 52 48 42 41 40 43 43 40 35 34 35 34 35 36 36 37 40 47 48 45 44 44 42
21 20 8 6 9 16 12 13 4 14 29 32 36 41 45 50 52 57 55 55 52 48 45 48 49 48 45 39 38 37 37 36 38 40 39 39 37 36 33 32 34 33 36 39 41 42 45 46 45
15 15 11 7 8 10 11 15 7 24 35 37 40 44 47 53 56 56 56 54 52 48 51 52 49 44 41 39 37 35 35 35 34 32 36 40 39 35 31 29 30 31 34 32 37 40 38 39 40
20 18 8 8 8 8 14 8 15 37 42 42 45 47 52 56 58 57 57 55 51 52 52 47 44 42 38 35 36 35 32 31 31 32 31 29 30 33 29 25 26 25 25 29 30 31 32 36 38
15 11 9 4 3 5 7 7 16 31 37 43 47 47 52 58 59 58 58 53 54 53 49 47 42 39 35 33 33 33 33 30 29 29 29 27 22 24 27 23 20 20 20 21 23 26 28 28 27
14 11 9 4 8 6 7 9 18 33 34 40 46 51 52 59 55 56 55 54 55 52 48 42 39 36 35 33 34 36 37 40 40 35 29 26 22 16 18 21 17 11 12 17 20 22 22 23 25
Wind_Direction
160 153 139 121 318 270 57 15 28 0 320 29 23 356 341 320 323 271 295 288 290 288 286 292 302 287 283 285 285 286 288 290 291 286 282 283 282 279 277 277 277 274 270 263 262 259 255 251 248
180 167 158 134 293 277 87 35 7 51 35 347 318 10 301 302 304 288 278 275 272 282 282 275 270 272 271 276 282 290 294 287 281 280 279 278 277 273 271 269 270 271 269 265 261 257 253 249 250
229 201 179 268 295 16 45 72 88 61 351 339 312 295 291 286 275 271 267 270 274 272 271 272 267 267 269 273 282 288 288 283 279 276 275 276 273 276 272 268 269 268 264 260 257 258 257 252 249
217 179 123 295 106 49 93 356 77 328 320 354 332 296 281 280 286 274 274 269 264 275 275 275 274 272 276 277 282 284 283 283 282 278 275 274 275 274 275 277 271 268 267 263 258 254 253 255 252
182 152 217 152 104 91 56 45 360 332 326 343 317 275 292 288 288 268 268 278 288 282 282 275 271 268 269 271 274 275 275 274 276 282 279 274 272 271 273 272 271 267 270 269 259 253 255 255 252
129 147 212 182 138 86 45 37 16 10 307 300 298 310 293 291 285 275 276 280 273 278 278 276 275 270 266 267 268 270 272 274 276 277 272 270 268 268 265 269 272 273 273 269 272 256 260 263 258
154 229 198 134 135 37 23 340 291 296 300 301 292 268 291 282 276 270 273 276 266 272 270 269 273 272 278 275 276 272 272 272 275 275 274 273 268 268 264 262 260 264 268 269 272 269 260 262 259
178 76 113 68 104 279 302 284 281 272 278 275 270 257 268 286 278 278 276 273 269 268 272 272 274 274 275 276 267 276 279 278 278 276 272 265 270 275 273 273 272 270 266 264 261 263 260 251 256
121 113 163 194 206 268 237 281 289 282 278 275 268 262 276 278 275 277 270 273 273 273 273 275 274 279 279 279 279 279 280 280 279 276 272 270 273 269 268 271 273 276 274 269 264 260 254 253 252
112 153 184 189 126 253 265 259 294 275 288 292 285 268 260 267 268 271 280 279 280 281 281 282 283 283 283 283 284 284 283 280 279 277 275 273 272 272 272 273 271 271 272 272 270 266 260 249 250
178 165 191 209 207 256 284 282 271 270 285 282 284 284 281 276 282 282 282 287 291 291 291 290 292 293 294 294 295 294 291 288 284 283 280 278 276 275 276 274 274 273 272 270 269 267 262 259 253
159 188 233 272 276 281 289 295 291 289 291 293 288 287 288 291 293 295 293 295 296 298 299 301 300 298 297 297 296 295 295 295 295 292 287 283 279 278 277 276 275 274 272 270 269 266 262 260 256
300 311 310 300 295 295 303 307 307 302 300 296 294 296 295 297 300 299 298 300 302 302 304 306 308 308 307 305 303 301 299 297 294 293 292 292 289 284 282 279 274 272 269 266 263 263 261 260 259
314 324 317 317 314 315 316 311 308 306 307 310 314 319 313 313 310 308 307 311 316 319 317 314 311 309 309 309 308 306 304 297 290 285 281 281 285 287 284 280 277 275 273 267 262 260 260 256 256
341 337 338 334 327 321 333 313 303 310 317 333 356 347 335 326 317 316 322 326 323 322 321 321 321 320 317 316 315 313 313 317 314 296 276 271 273 269 265 265 268 271 270 267 268 265 262 262 258
358 320 324 312 321 314 327 299 305 319 324 343 349 342 333 336 339 332 328 329 328 325 323 320 318 317 315 313 312 312 310 309 310 310 308 280 270 269 270 265 258 257 261 266 267 266 265 264 263
9 336 329 316 311 303 312 277 300 316 340 351 344 345 346 342 339 336 336 333 331 328 323 321 318 315 313 310 307 305 305 304 301 298 300 297 271 267 271 271 275 267 258 259 260 261 262 264 265
327 331 326 315 298 315 324 284 300 329 1 349 346 347 345 341 338 338 335 331 328 326 322 319 317 315 311 306 303 300 298 297 295 295 292 287 282 264 269 269 268 270 272 272 264 265 266 267 268
341 325 323 318 302 327 300 232 21 5 360 355 353 349 342 338 338 337 333 330 329 326 323 320 317 315 312 309 306 301 297 294 292 289 285 283 278 271 259 266 269 268 266 268 270 268 259 259 264
332 331 330 325 326 309 270 251 329 350 360 1 353 346 340 340 337 335 334 332 329 326 322 319 318 316 313 309 306 301 301 300 294 289 287 281 276 271 266 266 267 266 265 264 262 261 264 264 262
337 338 332 318 322 276 239 232 357 333 356 353 349 341 343 340 336 335 335 332 329 328 325 322 321 322 319 315 309 306 303 300 297 295 291 285 275 271 268 265 264 265 264 264 263 258 256 260 261
343 337 331 336 339 333 318 350 207 348 344 349 342 344 341 339 337 337 334 332 332 330 327 325 324 324 321 318 311 307 302 299 296 291 288 286 282 274 265 265 264 263 264 266 263 258 259 261 261
342 346 331 312 311 307 48 315 45 355 349 346 343 341 341 341 339 337 335 335 335 332 329 326 325 326 324 313 310 309 302 296 294 292 287 282 282 280 275 263 262 260 259 260 260 256 247 250 257
351 358 321 325 296 258 12 337 69 14 359 343 340 341 341 340 339 339 340 340 341 338 334 327 324 320 316 320 309 300 302 296 293 291 289 287 284 281 276 270 265 261 258 256 256 257 256 251 252
3 12 353 348 342 1 341 320 51 6 351 344 339 339 341 341 344 346 347 344 344 342 337 329 323 320 317 321 318 317 305 293 292 291 288 289 287 284 279 270 267 258 258 259 256 253 254 255 256
10 20 36 319 341 314 323 335 343 0 345 344 341 339 341 343 346 349 348 348 344 338 334 332 331 330 329 330 327 325 320 316 297 290 287 287 284 279 278 273 266 258 254 252 251 255 253 252 253
356 10 13 304 304 304 346 345 8 341 347 343 342 342 343 347 350 352 350 348 344 345 339 337 337 335 334 331 330 326 324 321 317 310 291 284 283 282 276 267 263 261 254 253 252 250 246 244 252
17 17 14 351 346 320 335 1 337 343 342 343 343 343 344 351 356 352 352 350 350 344 343 346 345 341 340 340 340 340 336 327 320 318 315 305 289 277 276 269 261 256 259 256 252 253 252 247 240
16 22 20 347 4 310 316 15 351 339 342 339 341 343 346 355 354 352 353 353 350 351 356 354 353 355 355 357 356 357 357 350 344 334 323 314 308 279 274 272 268 254 259 260 252 248 249 248 246
9 19 17 25 327 293 269 299 339 332 337 339 343 347 352 358 353 356 355 355 358 2 1 1 3 6 5 8 11 15 13 8 3 357 348 335 317 304 270 267 272 250 264 263 257 253 244 246 245